FENGYUN 1C DEB

Satellite information

Favourite Embed

Satellite Type and Status

DEBRISIN ORBIT

Key statistics

Satellite FENGYUN 1C DEB at a glance.

Uptime

9660

Days in orbit

Revolutions

≈ 14.2

Per day

Orbit

SSO

Sun Synchronous Orbit

Inclination

98.6

Latest

Satellite identification and parameters

Extended collection of information and parameters for FENGYUN 1C DEB.

Object identification

Identified? True

Debris? True

Object name: FENGYUN 1C DEB

International designator: 1999-025BKX

Object number (NORAD): 31217

Object ID (CCSDS): 31217

Country: PEOPLES REPUBLIC OF CHINA (PRC)

Current information (Y/N): Y

RCS size: SMALL

Orbital parameters

Period: 101.6 minutes

Inclination: 98.6436 deg

SMA: 7212.54 km

Apoapsis: 905.687 km

Periapsis: 763.122 km

RAAN: 301.1367 deg

Eccentricy: 0.00988315

Argument of periapsis: 319.2222 deg

Mean anomaly: 40.1585 deg

Mean motion: 14.17328191 rev/day

Mean motion (dot): 0.00002423 rev/day2

B* drag term: 0.0011625323 1/REarth

Two-line elements (TLE)

Creation date: Oct. 19, 2025, 2:20 a.m.

Reference frame: TEME

Reference center: EARTH

Epoch: Oct. 18, 2025, 5:53 p.m. UTC

TLE line 0: 0 FENGYUN 1C DEB

TLE line 1: 1 31217U 99025BKX 25291.74565581 .00002423 00000-0 11625-2 0 9997

TLE line 2: 2 31217 98.6436 301.1367 0098832 319.2222 40.1585 14.17328191955698

Live tracking on map

Real-time ground track for satellite FENGYUN 1C DEB.

In-orbit conjunctions

A list of the most updated potential collisions computed for object FENGYUN 1C DEB.

Target Orbit TCA Probability of collision Miss distance Type
CZ-6A DEB SSO 2025-10-20 08:27:38 0.0001063512 872.0 (m) DEBRIS
CZ-6A DEB SSO 2025-03-01 05:19:39 0.0001022774 570.0 (m) DEBRIS

Associated space launch

Chinese polar orbiting meteorological satellite

FENGYUN 1C DEB was lifted into orbit during the mission ‘Long March 4B | Feng Yun 1C’, on board a Long March 4B space rocket.

The launch took place on May 10, 1999, 1:33 a.m. from Launch Complex 7.

For more information about the launch, click the button.

Launch to space Long March 4B | Feng Yun 1C
Long March 4B | Feng Yun 1C

Agency: N/A

Status: Launch Successful

Launch date: May 10, 1999, 1:33 a.m. UTC

Rocket: Long March 4B

Launch pad: Launch Complex 7

Location: Taiyuan Satellite Launch Center, People's Republic of China

...

Latest news about this satellite

There are no fresh news available about this satellite. Check back as we update our databases every day.


Newsletter sign-up

Weekly statistics, charts and insights to help you stay on top of the space industry.